Content
SEND FEEDBACK

Daily
Averages
Monthly
Summary
United States of America

NEW YORK - CENTRAL PARK, NEW YORK


Home > North America > United States > New York
Elevation: 14 feet     Latitude: 40 47N     Longitude: 073 58W

WEATHER
 
SELECT A DAY
Number of Records: 147,991;   Date Range: 11/1/95 - 7/20/14
 
SHARE

PRINT THIS DATA

[ ← Previous Day ]
WEATHER ALMANAC - APRIL 1, 2014
[ Next Day → ]
[ °C ]   °F
Weather ElementAverageHighLow
Temperature47.6 °F59 °F (4:51 pm)39 °F (5:51 am)
Dewpoint27.6 °F32 °F (9:51 pm)24.1 °F (4:51 am)
Humidity46.8 %58 % (11:51 pm)33 % (3:51 pm)
Barometer30.07 in30.13 in (7:51 am)29.99 in (4:51 pm)
Wind Speed4.8 mph9.2 mph (2:51 am)
Wind Gust16.1 mph (4:51 am)
Weather ElementAverage
Visibility10 mi
Wind DirectionNE (42.6 °)

Weather ElementTotal
Precipitation---
Heating Degree Days16 (Base 65)
Averaged from 23 records on April 1, 2014
WEATHER CONDITIONS BREAKOUT
WIND DIRECTION BREAKOUT
WEATHER BY HOUR - APRIL 1, 2014
[ °C ]   °F
Local TimeTemperatureDewpointHumidityBarometerVisibilityWind DirectionWind SpeedGust SpeedPrecipitationEventsConditions
1:51 AM41.0 °F25.0 °F53 %30.09 in10.0 miVariable5.8 mphClear
2:51 AM41.0 °F25.0 °F53 %30.10 in10.0 miNorth (10°)9.2 mphClear
3:51 AM39.9 °F25.0 °F55 %30.09 in10.0 miNNE (30°)9.2 mphClear
4:51 AM39.9 °F24.1 °F53 %30.09 in10.0 miNorth (10°)8.1 mph16.1 mphClear
5:51 AM39.0 °F25.0 °F57 %30.10 in10.0 miVariable3.5 mphClear
6:51 AM39.0 °F25.0 °F57 %30.12 in10.0 miVariable6.9 mphClear
7:51 AM39.9 °F25.0 °F55 %30.13 in10.0 miVariable3.5 mphClear
8:51 AM42.1 °F25.0 °F51 %30.13 in10.0 miVariable4.6 mphClear
9:51 AM45.0 °F25.0 °F46 %30.12 in10.0 miVariable6.9 mphClear
10:51 AM48.9 °F27.0 °F43 %30.12 in10.0 miVariable5.8 mphClear
11:51 AM50.0 °F27.0 °F41 %30.10 in10.0 miVariable4.6 mphClear
12:51 PM53.1 °F27.0 °F37 %30.07 in10.0 miCalmClear
1:51 PM55.0 °F28.0 °F35 %30.05 in10.0 miVariable4.6 mphClear
2:51 PM55.9 °F28.0 °F34 %30.03 in10.0 miWSW (250°)4.6 mphClear
3:51 PM57.9 °F28.9 °F33 %30.02 in10.0 miWest (270°)4.6 mphClear
4:51 PM59.0 °F30.0 °F33 %29.99 in10.0 miCalmClear
5:51 PM57.9 °F30.9 °F36 %30.00 in10.0 miWSW (240°)4.6 mphPartly Cloudy
6:51 PM52.0 °F30.0 °F43 %30.00 in10.0 miVariable4.6 mphClear
7:51 PM50.0 °F30.0 °F46 %30.04 in10.0 miVariable4.6 mphPartly Cloudy
8:51 PM48.9 °F30.0 °F48 %30.07 in10.0 miSouth (170°)4.6 mphPartly Cloudy
9:51 PM48.0 °F32.0 °F54 %30.06 in10.0 miVariable4.6 mphClear
10:51 PM46.0 °F30.9 °F56 %30.08 in10.0 miVariable5.8 mphClear
11:51 PM46.0 °F32.0 °F58 %30.07 in10.0 miCalmClear
Hourly data recorded from KNYC, located miles away from New York - Central Park, New York







STORIES FROM OUR PARTNERS